Regional Weather Roundup
Issued by NWS

Home | Current Version | Previous Version | Graphics & Text | Print | Product List | Glossary On
Versions: 1 2 3 4 5 6 7 8 9 10 11 12 13 14 15 16 17 18 19 20 21 22 23 24 25 26 27 28 29 30 31 32 33 34 35 36 37 38 39 40 41 42 43 44 45 46 47 48 49 50
000
ASUS45 KBOU 201307
RWRCO

WEATHER ROUNDUP FOR COLORADO
NATIONAL WEATHER SERVICE DENVER/BOULDER CO
600 AM MST SAT DEC 20 2014

NOTE: "FAIR" INDICATES FEW OR NO CLOUDS BELOW 12000 FEET WITH NO
SIGNIFICANT WEATHER AND/OR OBSTRUCTIONS TO VISIBILITY.

COZ001>005-013-030-031-201400-
...NORTHWEST COLORADO...

CITY           SKY/WX    TMP DP  RH WIND       PRES   REMARKS
CRAIG          CLOUDY    25  19  78 E7        30.14R WCI  17
HAYDEN         CLOUDY    23  16  74 SE8       30.13S WCI  14
MEEKER         CLOUDY    22  17  81 CALM      30.14R
MOUNT WERNER   NOT AVBL
STEAMBOAT SPGS CLOUDY    18  15  89 CALM      30.13S
WALDEN         MOCLDY    23  16  74 S12       30.06F WCI  12
$$

COZ006>008-011-201400-
...WEST CENTRAL VALLEYS...

CITY           SKY/WX    TMP DP  RH WIND       PRES   REMARKS
GRAND JUNCTION CLOUDY    28  25  88 E5        30.18S WCI  23
MONTROSE       MOCLDY    24  19  81 S7        30.20F WCI  16
EAGLE          PTCLDY    14  12  92 CALM      30.22R
RIFLE          MOCLDY    25  20  81 SW5       30.19F WCI  19
DELTA          CLOUDY    27  22  82 E3        30.21S
NUCLA          MOCLDY    25  21  86 CALM      30.22R
$$

COZ017>023-064>068-201400-
...SOUTHWEST COLORADO...

CITY           SKY/WX    TMP DP  RH WIND       PRES   REMARKS
DURANGO        CLOUDY    24  21  88 CALM      30.17R
CORTEZ         CLEAR     23  20  88 NE5       30.16F WCI  17
PAGOSA SPRINGS PTCLDY    16  15  96 CALM      30.15S
TELLURIDE      MOCLDY    19  12  74 SE6       30.14S WCI  11
WOLF CREEK PAS MOCLDY    19   9  63 MISG      30.13S
$$

COZ009-010-012-014-032>034-037-058>063-201400-
...CENTRAL COLORADO...

CITY           SKY/WX    TMP DP  RH WIND       PRES   REMARKS
ASPEN          MOCLDY    15  10  80 S7        30.14F WCI   5
BUENA VISTA    MOCLDY    15   8  74 W3        30.11S
COPPER MTN     CLOUDY    19  14  79 S7G17     30.10S WCI  10
BERTHOUD PASS  CLOUDY    10   5  79 MISG      30.04F
COTTONWOOD PAS MOCLDY    27  12  54 N3        30.08S
GUNNISON       MOCLDY     7   1  78 CALM      30.23S
KREMMLING      MOCLDY    10   7  85 CALM      30.18S
LEADVILLE      CLOUDY    16   9  74 CALM      30.09S
MONARCH PASS     N/A     12  10  92 MISG      30.18S
SALIDA         MOCLDY    22   9  57 NW9       30.19S WCI  12
SUNLIGHT       CLOUDY   N/A N/A N/A CALM      30.13S
WILKERSON PASS MOCLDY    21  12  68 NW12G17   30.09S WCI   9
$$

COZ069>075-201400-
...SAN LUIS VALLEY/SANGRE DE CRISTO MOUNTAINS...

CITY           SKY/WX    TMP DP  RH WIND       PRES   REMARKS
ALAMOSA        CLOUDY     6   2  83 E5        30.16S WCI  -3
LA VETA PASS   MOCLDY    12   9  85 MISG      30.08F
SAGUACHE       MOCLDY    18  10  73 CALM      30.16R
$$

COZ035-036-038>040-201400-
...NORTHERN COLORADO FRONT RANGE...

CITY           SKY/WX    TMP DP  RH WIND       PRES   REMARKS
DENVER INTL AP MOCLDY    28  16  60 CALM      29.98R
DMNS CITY PARK   N/A     32  15  49 SW3       29.99S
AURORA         MOCLDY    32  16  51 S10       29.99S WCI  24
FRONT RANGE AP MOCLDY    30  21  69 S6        29.99S WCI  24
ERIE MUNI ARPT   N/A     25  19  79 CALM      29.99S
BOULDER MUN AP CLOUDY    30  19  64 CALM      29.97F
CENTENNIAL     CLOUDY    28  18  66 CALM      29.99R
BROOMFIELD     CLOUDY    28  18  64 CALM      29.98F
FORT COLLINS   MOCLDY    27  19  74 CALM      29.99S
LONGMONT       MOCLDY    26  19  77 CALM      30.00S
$$

COZ041-046-047-076>085-087-088-201400-
...PIKES PEAK/PALMER DIVIDE AND SOUTHERN FOOTHILLS...

CITY           SKY/WX    TMP DP  RH WIND       PRES   REMARKS
COLO. SPRINGS  MOCLDY    26  15  63 N9        30.02F WCI  17
A. F. ACADEMY  PTCLDY    24  13  64 CALM      30.01F
ELLICOTT       NOT AVBL
FALCON         PTCLDY    27  15  59 NW3       30.03S
FORT CARSON    PTCLDY    23  16  75 N9        30.01S WCI  13
LIMON          PTCLDY    16  13  88 N7        30.02R WCI   6
MONUMENT HILL  MOCLDY    27  14  59 SW9       30.00S WCI  17
TRINIDAD       PTCLDY    25  13  60 W14       30.06R WCI  13
$$

COZ042>045-048>051-090-091-201400-
...NORTHEAST COLORADO...

CITY           SKY/WX    TMP DP  RH WIND       PRES   REMARKS
GREELEY ARPT   CLOUDY    18   9  68 CALM      29.98S
AKRON          PTCLDY    26  17  68 W13       29.99R WCI  15
BURLINGTON     CLEAR     25  21  85 W8        30.02R WCI  16
WRAY           PTCLDY    24  20  85 W8        30.01R WCI  15
STERLING       PTCLDY    14  12  92 S6        30.00S WCI   5
HOLYOKE        PTCLDY    21  16  79 W9        29.99F WCI  11
FORT MORGAN    PTCLDY    16  13  89 W9        30.00S WCI   4
$$

COZ086-089-092>099-201400-
...SOUTHEAST COLORADO...

CITY           SKY/WX    TMP DP  RH WIND       PRES   REMARKS
PUEBLO         MOCLDY    19  14  81 CALM      30.04R
LA JUNTA       CLEAR     25  20  81 W13       30.05S WCI  14
LAMAR          CLEAR     20  18  92 SW8       30.05R WCI  10
SPRINGFIELD      N/A     25  20  81 CALM      30.04R
$$


USA.gov is the U.S. government's official web portal to all federal, state and local government web resources and services.